Location: Limoges
(45.8354°N, 1.2645°E)
Time: 08:45:27
(UTC+01:00)

A-11 Canister half - All Passes

Search period start: 25 February 2024 00:00
Search period end: 06 March 2024 00:00
Orbit: 1526 x 1682 km, 47.3° (Epoch: 24 February)

Date Brightness Start Highest point End Pass type
(mag) Time Alt. Az. Time Alt. Az. Time Alt. Az.
25 Feb - 01:51:25 10° WNW 02:00:49 89° NNE 02:10:12 10° ESE visible
25 Feb - 03:56:33 10° WNW 04:05:24 50° SW 04:14:18 10° SE visible
25 Feb - 06:03:46 10° W 06:08:38 15° SW 06:13:31 10° SSW visible
25 Feb - 19:19:51 10° SSE 19:25:40 18° SE 19:31:25 10° E visible
25 Feb - 21:19:54 10° SW 21:29:05 54° SE 21:38:04 10° ENE visible
25 Feb - 23:24:16 10° WSW 23:33:47 87° NNW 23:43:09 10° E visible
26 Feb - 01:29:40 10° WNW 01:39:05 88° NNE 01:48:27 10° ESE night (unlit)
26 Feb - 03:34:48 10° WNW 03:43:42 52° SW 03:52:39 10° SE visible
26 Feb - 05:41:45 10° W 05:46:59 17° SW 05:52:17 10° SSW visible
26 Feb - 18:58:33 10° SSE 19:04:02 17° SE 19:09:26 10° E visible
26 Feb - 20:58:14 10° SW 21:07:23 52° SE 21:16:20 10° ENE visible
26 Feb - 23:02:31 10° WSW 23:12:02 88° NNW 23:21:24 10° ENE visible
27 Feb - 01:07:54 10° W 01:17:20 87° NNE 01:26:42 10° ESE visible
27 Feb - 03:13:03 10° WNW 03:22:01 54° SW 03:31:01 10° SE visible
27 Feb - 05:19:45 10° W 05:25:22 18° SW 05:31:01 10° SSW visible
27 Feb - 18:37:17 10° SSE 18:42:23 16° SE 18:47:25 10° E daylight
27 Feb - 20:36:34 10° SW 20:45:41 50° SE 20:54:35 10° ENE visible
27 Feb - 22:40:45 10° WSW 22:50:18 89° N 22:59:40 10° ENE visible
28 Feb - 00:46:09 10° W 00:55:36 86° N 01:04:56 10° E visible
28 Feb - 02:51:19 10° WNW 03:00:20 56° SSW 03:09:21 10° SE visible
28 Feb - 04:57:48 10° W 05:03:44 19° SW 05:09:42 10° SSW visible
28 Feb - 18:16:05 10° SSE 18:20:45 15° SE 18:25:21 10° E daylight
28 Feb - 20:14:55 10° SSW 20:23:59 48° SE 20:32:50 10° ENE visible
28 Feb - 22:18:58 10° WSW 22:28:33 89° SSE 22:37:55 10° ENE visible
29 Feb - 00:24:23 10° W 00:33:51 85° N 00:43:12 10° E visible
29 Feb - 02:29:33 10° WNW 02:38:37 59° SSW 02:47:41 10° SE night (unlit)
29 Feb - 04:35:53 10° W 04:42:06 20° SW 04:48:21 10° S visible
29 Feb - 17:54:58 10° SSE 17:59:07 14° ESE 18:03:12 10° E daylight
29 Feb - 19:53:15 10° SSW 20:02:17 47° SE 20:11:05 10° ENE visible
29 Feb - 21:57:13 10° WSW 22:06:48 88° SSE 22:16:11 10° ENE visible
01 Mar - 00:02:37 10° W 00:12:06 85° N 00:21:27 10° E visible
01 Mar - 02:07:48 10° WNW 02:16:55 61° SSW 02:26:01 10° SE night (unlit)
01 Mar - 04:13:58 10° W 04:20:27 22° SW 04:26:58 10° S visible
01 Mar - 17:33:57 10° SE 17:37:28 12° ESE 17:40:58 10° E daylight
01 Mar - 19:31:38 10° SSW 19:40:36 45° SE 19:49:20 10° ENE visible
01 Mar - 21:35:27 10° WSW 21:45:04 87° SSE 21:54:27 10° ENE visible
01 Mar - 23:40:51 10° W 23:50:21 84° N 23:59:42 10° E visible
02 Mar - 01:46:03 10° WNW 01:55:13 63° SSW 02:04:20 10° SE visible
02 Mar - 03:52:05 10° W 03:58:48 23° SW 04:05:33 10° S night (unlit)
02 Mar - 17:13:07 10° SE 17:15:50 11° ESE 17:18:33 10° ESE daylight
02 Mar - 19:10:00 10° SSW 19:18:54 43° SE 19:27:35 10° ENE visible
02 Mar - 21:13:41 10° WSW 21:23:19 85° SSE 21:32:43 10° ENE visible
02 Mar - 23:19:04 10° W 23:28:35 83° N 23:37:57 10° E visible
03 Mar - 01:24:18 10° WNW 01:33:31 65° SSW 01:42:40 10° SE visible
03 Mar - 03:30:13 10° W 03:37:10 24° SW 03:44:08 10° S night (unlit)
03 Mar - 16:52:43 10° SE 16:54:12 10° ESE 16:55:41 10° ESE daylight
03 Mar - 18:48:21 10° SSW 18:57:13 41° SE 19:05:50 10° ENE daylight
03 Mar - 20:51:55 10° WSW 21:01:35 84° SSE 21:10:59 10° ENE visible
03 Mar - 22:57:18 10° W 23:06:50 83° N 23:16:12 10° E visible
04 Mar - 01:02:33 10° WNW 01:11:48 67° SSW 01:20:59 10° SE visible
04 Mar - 03:08:22 10° W 03:15:31 26° SW 03:22:41 10° S night (unlit)
04 Mar - 18:26:45 10° SSW 18:35:32 39° SE 18:44:03 10° ENE daylight
04 Mar - 20:30:09 10° WSW 20:39:50 82° SSE 20:49:15 10° ENE visible
04 Mar - 22:35:31 10° W 22:45:05 83° N 22:54:27 10° E visible
05 Mar - 00:40:48 10° WNW 00:50:06 69° SSW 00:59:17 10° SE visible
05 Mar - 02:46:32 10° W 02:53:52 27° SW 03:01:13 10° S night (unlit)
05 Mar - 18:05:09 10° SSW 18:13:50 38° SE 18:22:18 10° ENE daylight
05 Mar - 20:08:24 10° WSW 20:18:06 81° SSE 20:27:31 10° ENE visible
05 Mar - 22:13:44 10° W 22:23:20 82° N 22:32:43 10° E visible
